Location: Melita
(38.4566°N, 122.6369°W)
Time: 10:26:10
(UTC+00:00)

Milstar 3 Cent rocket - Pass Details

Date: 24 January 2020
Orbit: 709 x 5144 km, 28.3° (Epoch: 16 February)

Event Time Altitude Azimuth Distance (km) Brightness Sun altitude
Exits shadow 14:18:27 - 251° (WSW) 7,326 6.5 -12.6°
Reaches altitude 10° 14:24:28 10° 247° (WSW) 5,587 5.9 -11.5°
Maximum altitude 14:37:32 44° 181° (S) 2,063 4.3 -9.0°
Drops below altitude 10° 14:44:09 10° 111° (ESE) 2,889 6.8 -7.8°
Sets 14:46:19 0° 103° (ESE) 3,592 8.0 -7.4°
